Location: Unspecified
(39.6445°N, 0.0000°E)
Time: 08:11:08
(UTC+00:00)

OTV 5 (USA 277) - Visible Passes

Search period start: 26 June 2019 00:00
Search period end: 06 July 2019 00:00
Orbit: 301 x 333 km, 54.5° (Epoch: 26 June)

Date Brightness Start Highest point End Pass type
(mag) Time Alt. Az. Time Alt. Az. Time Alt. Az.
26 Jun ? 02:17:22 10° NW 02:19:12 36° NNW 02:19:12 36° NNW visible
26 Jun ? 20:11:52 10° WNW 20:13:42 16° NNW 20:15:35 10° NNE visible
27 Jun ? 00:58:12 10° NNW 00:59:32 16° NNE 00:59:32 16° NNE visible
28 Jun ? 23:53:28 10° N 23:54:13 12° NNE 23:54:13 12° NNE visible
30 Jun ? 00:07:16 10° NNW 00:07:26 11° NNW 00:07:26 11° NNW visible
01 Jul ? 23:02:21 10° NNW 23:03:23 15° N 23:03:23 15° N visible
02 Jul ? 23:16:25 10° NNW 23:16:55 14° NNW 23:16:55 14° NNW visible
03 Jul ? 21:57:37 10° N 21:59:02 13° NNE 21:59:38 12° NE visible
04 Jul ? 22:11:25 10° NNW 22:13:16 23° NNE 22:13:16 23° NNE visible
05 Jul ? 22:25:40 10° NW 22:26:58 24° NW 22:26:58 24° NW visible
